| time (UTC) | temp C | wind direction | speed KPH | gust KPH | rain 1hr cm | rain 24hr cm | rain mn cm | humidity % | barometer mb |
| 20260504215017 | 23 | 279 | 6.4 | 16.1 | 0.00 | 0.00 | 0.00 | 32 | 1003.7 |
| 20260504214017 | 23 | 252 | 6.4 | 22.5 | 0.00 | 0.00 | 0.00 | 32 | 1003.8 |
| 20260504213017 | 23 | 282 | 4.8 | 17.7 | 0.00 | 0.00 | 0.00 | 33 | 1003.7 |
| 20260504212037 | 23 | 278 | 8.0 | 17.7 | 0.00 | 0.00 | 0.00 | 33 | 1003.7 |
| 20260504211017 | 23 | 284 | 8.0 | 22.5 | 0.00 | 0.00 | 0.00 | 34 | 1003.8 |
| 20260504210017 | 23 | 279 | 8.0 | 20.9 | 0.00 | 0.00 | 0.00 | 33 | 1003.9 |
| 20260504205017 | 23 | 248 | 4.8 | 17.7 | 0.00 | 0.00 | 0.00 | 34 | 1003.9 |
| 20260504204017 | 23 | 269 | 8.0 | 24.1 | 0.00 | 0.00 | 0.00 | 35 | 1004.1 |
| 20260504203037 | 23 | 259 | 6.4 | 17.7 | 0.00 | 0.00 | 0.00 | 36 | 1004.1 |
| 20260504202017 | 22 | 264 | 8.0 | 24.1 | 0.00 | 0.00 | 0.00 | 36 | 1004.3 |
| 20260504201017 | 23 | 285 | 9.7 | 19.3 | 0.00 | 0.00 | 0.00 | 37 | 1004.5 |
| 20260504200017 | 22 | 254 | 8.0 | 19.3 | 0.00 | 0.00 | 0.00 | 37 | 1004.6 |
| 20260504195017 | 22 | 287 | 6.4 | 19.3 | 0.00 | 0.00 | 0.00 | 40 | 1004.7 |
| 20260504194017 | 22 | 235 | 8.0 | 20.9 | 0.00 | 0.00 | 0.00 | 39 | 1004.8 |
| 20260504193017 | 22 | 284 | 6.4 | 24.1 | 0.00 | 0.00 | 0.00 | 40 | 1005.0 |
| 20260504192017 | 22 | 274 | 4.8 | 22.5 | 0.00 | 0.00 | 0.00 | 40 | 1005.0 |
| 20260504191017 | 22 | 260 | 8.0 | 19.3 | 0.00 | 0.00 | 0.00 | 41 | 1005.2 |
| 20260504190017 | 22 | 255 | 11.3 | 22.5 | 0.00 | 0.00 | 0.00 | 40 | 1005.3 |
| 20260504185017 | 22 | 265 | 11.3 | 25.7 | 0.00 | 0.00 | 0.00 | 41 | 1005.3 |
| 20260504184017 | 21 | 290 | 9.7 | 22.5 | 0.00 | 0.00 | 0.00 | 43 | 1005.3 |
| 20260504183017 | 21 | 284 | 8.0 | 20.9 | 0.00 | 0.00 | 0.00 | 43 | 1005.5 |
| 20260504182037 | 21 | 256 | 8.0 | 19.3 | 0.00 | 0.00 | 0.00 | 42 | 1005.6 |
| 20260504181017 | 21 | 278 | 9.7 | 22.5 | 0.00 | 0.00 | 0.00 | 43 | 1005.7 |
| 20260504180017 | 21 | 270 | 11.3 | 25.7 | 0.00 | 0.00 | 0.00 | 43 | 1005.7 |
| 20260504175017 | 21 | 263 | 6.4 | 19.3 | 0.00 | 0.00 | 0.00 | 44 | 1005.8 |
| 20260504174037 | 21 | 306 | 9.7 | 27.4 | 0.00 | 0.00 | 0.00 | 45 | 1005.8 |
| 20260504173017 | 21 | 276 | 9.7 | 20.9 | 0.00 | 0.00 | 0.00 | 44 | 1005.8 |
| 20260504172017 | 20 | 291 | 8.0 | 27.4 | 0.00 | 0.00 | 0.00 | 45 | 1005.9 |
| 20260504171017 | 20 | 262 | 8.0 | 24.1 | 0.00 | 0.00 | 0.00 | 46 | 1005.9 |
| 20260504151016 | 17 | 253 | 8.0 | 19.3 | 0.00 | 0.00 | 0.00 | 47 | 1007.3 |
| 20260504141017 | 16 | 254 | 3.2 | 20.9 | 0.00 | 0.00 | 0.00 | 50 | 1007.4 |
| 20260504081017 | 11 | 256 | 3.2 | 11.3 | 0.00 | 0.00 | 0.00 | 53 | 1008.2 |
| 20260504050017 | 8 | 0.0 | 0.0 | 0.00 | 0.00 | 0.00 | 88 | 1009.0 | |
| 20260504045017 | 8 | 0.0 | 0.0 | 0.00 | 0.00 | 0.00 | 87 | 1009.0 | |
| 20260504044036 | 8 | 0.0 | 0.0 | 0.00 | 0.00 | 0.00 | 87 | 1009.0 | |
| 20260504043017 | 8 | 0.0 | 0.0 | 0.00 | 0.00 | 0.00 | 86 | 1009.0 | |
| 20260504042017 | 8 | 0.0 | 0.0 | 0.00 | 0.00 | 0.00 | 86 | 1009.0 | |
| 20260504041017 | 8 | 0.0 | 0.0 | 0.00 | 0.00 | 0.00 | 85 | 1009.1 | |
| 20260504040057 | 8 | 0.0 | 0.0 | 0.00 | 0.00 | 0.00 | 85 | 1009.1 | |
| 20260504035017 | 8 | 0.0 | 0.0 | 0.00 | 0.00 | 0.00 | 85 | 1009.3 | |
| 20260504034017 | 8 | 0.0 | 0.0 | 0.00 | 0.00 | 0.00 | 84 | 1009.3 | |
| 20260504033017 | 9 | 0.0 | 0.0 | 0.00 | 0.00 | 0.00 | 82 | 1009.5 | |
| 20260504032017 | 9 | 0.0 | 0.0 | 0.00 | 0.00 | 0.00 | 82 | 1009.4 | |
| 20260504031037 | 10 | 0.0 | 0.0 | 0.00 | 0.00 | 0.00 | 80 | 1009.4 | |
| 20260504030036 | 10 | 0.0 | 0.0 | 0.00 | 0.00 | 0.00 | 78 | 1009.5 | |
| 20260504025017 | 10 | 0.0 | 0.0 | 0.00 | 0.00 | 0.00 | 76 | 1009.7 | |
| 20260504024017 | 10 | 0.0 | 3.2 | 0.00 | 0.00 | 0.00 | 73 | 1010.0 | |
| 20260504023017 | 10 | 299 | 1.6 | 6.4 | 0.00 | 0.00 | 0.00 | 72 | 1010.2 |
| 20260504022017 | 10 | 283 | 3.2 | 12.9 | 0.00 | 0.00 | 0.00 | 72 | 1010.1 |
| 20260504021057 | 10 | 307 | 6.4 | 17.7 | 0.00 | 0.00 | 0.00 | 71 | 1010.3 |
| 20260504020017 | 11 | 306 | 9.7 | 25.7 | 0.00 | 0.00 | 0.00 | 69 | 1010.6 |
| 20260504015017 | 11 | 322 | 9.7 | 17.7 | 0.00 | 0.00 | 0.00 | 65 | 1010.7 |
| 20260504014017 | 12 | 319 | 6.4 | 14.5 | 0.00 | 0.00 | 0.00 | 61 | 1010.5 |
| 20260504013017 | 12 | 314 | 8.0 | 17.7 | 0.00 | 0.00 | 0.00 | 58 | 1010.2 |
| 20260504012037 | 12 | 314 | 6.4 | 22.5 | 0.00 | 0.00 | 0.00 | 58 | 1010.0 |
| 20260504011017 | 12 | 318 | 8.0 | 20.9 | 0.00 | 0.00 | 0.00 | 55 | 1010.0 |
| 20260504010017 | 12 | 314 | 9.7 | 20.9 | 0.00 | 0.00 | 0.00 | 52 | 1009.8 |
| 20260504005017 | 12 | 306 | 6.4 | 17.7 | 0.00 | 0.00 | 0.00 | 51 | 1009.6 |
| 20260504004017 | 11 | 0.0 | 1.6 | 0.00 | 0.00 | 0.00 | 56 | 1009.4 | |
| 20260504003017 | 12 | 68 | 0.0 | 1.6 | 0.00 | 0.00 | 0.00 | 53 | 1009.4 |
| 20260504002017 | 12 | 0.0 | 3.2 | 0.00 | 0.00 | 0.00 | 51 | 1009.2 | |
| 20260504001017 | 12 | 275 | 1.6 | 4.8 | 0.00 | 0.00 | 0.00 | 51 | 1009.2 |
| 20260504000017 | 12 | 282 | 1.6 | 9.7 | 0.00 | 0.00 | 0.00 | 51 | 1009.0 |
| 20260503235037 | 12 | 316 | 6.4 | 14.5 | 0.00 | 0.00 | 0.00 | 50 | 1009.3 |
| 20260503234017 | 12 | 319 | 6.4 | 19.3 | 0.00 | 0.00 | 0.00 | 51 | 1009.6 |
| 20260503233037 | 12 | 312 | 12.9 | 27.4 | 0.00 | 0.00 | 0.00 | 47 | 1009.8 |
| 20260503232017 | 12 | 318 | 6.4 | 12.9 | 0.00 | 0.00 | 0.00 | 46 | 1009.6 |
| 20260503231017 | 12 | 334 | 9.7 | 19.3 | 0.00 | 0.00 | 0.00 | 44 | 1009.5 |
| 20260503230037 | 12 | 304 | 3.2 | 12.9 | 0.00 | 0.00 | 0.00 | 44 | 1009.4 |
| 20260503225017 | 13 | 292 | 4.8 | 11.3 | 0.00 | 0.00 | 0.00 | 44 | 1009.2 |
| 20260503224017 | 13 | 285 | 4.8 | 9.7 | 0.00 | 0.00 | 0.00 | 43 | 1009.2 |
| 20260503223017 | 13 | 309 | 3.2 | 8.0 | 0.00 | 0.00 | 0.00 | 44 | 1009.1 |
| 20260503222037 | 13 | 290 | 3.2 | 9.7 | 0.00 | 0.00 | 0.00 | 44 | 1009.2 |
| 20260503221017 | 13 | 305 | 4.8 | 11.3 | 0.00 | 0.00 | 0.00 | 43 | 1009.4 |
| 20260503220017 | 13 | 295 | 6.4 | 14.5 | 0.00 | 0.00 | 0.00 | 45 | 1009.4 |